Year,Month,Day,Hour,Minute,Value (Times are PST for temperature in C)
2018,08,21,00,00,14.60
2018,08,21,00,01,14.70
2018,08,21,00,02,14.70
2018,08,21,00,03,14.70
2018,08,21,00,04,14.80
2018,08,21,00,05,14.80
2018,08,21,00,06,14.90
2018,08,21,00,07,14.90
2018,08,21,00,08,14.90
2018,08,21,00,09,14.80
2018,08,21,00,10,14.80
2018,08,21,00,11,14.80
2018,08,21,00,12,14.80
2018,08,21,00,13,14.90
2018,08,21,00,14,14.90
2018,08,21,00,15,14.90
2018,08,21,00,16,14.90
2018,08,21,00,17,14.90
2018,08,21,00,18,14.90
2018,08,21,00,19,14.90
2018,08,21,00,20,14.90
2018,08,21,00,21,14.80
2018,08,21,00,22,14.80
2018,08,21,00,23,14.80
2018,08,21,00,24,14.80
2018,08,21,00,25,14.70
2018,08,21,00,26,14.70
2018,08,21,00,27,14.60
2018,08,21,00,28,14.50
2018,08,21,00,29,14.50
2018,08,21,00,30,14.40
2018,08,21,00,31,14.30
2018,08,21,00,32,14.30
2018,08,21,00,33,14.30
2018,08,21,00,34,14.20
2018,08,21,00,35,14.20
2018,08,21,00,36,14.20
2018,08,21,00,37,14.20
2018,08,21,00,38,14.20
2018,08,21,00,39,14.30
2018,08,21,00,40,14.30
2018,08,21,00,41,14.30
2018,08,21,00,42,14.30
2018,08,21,00,43,14.30
2018,08,21,00,44,14.30
2018,08,21,00,45,14.30
2018,08,21,00,46,14.20
2018,08,21,00,47,14.20
2018,08,21,00,48,14.20
2018,08,21,00,49,14.20
2018,08,21,00,50,14.20
2018,08,21,00,51,14.20
2018,08,21,00,52,14.20
2018,08,21,00,53,14.20
2018,08,21,00,54,14.30
2018,08,21,00,55,14.30
2018,08,21,00,56,14.40
2018,08,21,00,57,14.40
2018,08,21,00,58,14.40
2018,08,21,00,59,14.40
2018,08,21,01,00,14.40
2018,08,21,01,01,14.40
2018,08,21,01,02,14.40
2018,08,21,01,03,14.30
2018,08,21,01,04,14.30
2018,08,21,01,05,14.30
2018,08,21,01,06,14.30
2018,08,21,01,07,14.30
2018,08,21,01,08,14.30
2018,08,21,01,09,14.30
2018,08,21,01,10,14.30
2018,08,21,01,11,14.30
2018,08,21,01,12,14.30
2018,08,21,01,13,14.40
2018,08,21,01,14,14.40
2018,08,21,01,15,14.40
2018,08,21,01,16,14.40
2018,08,21,01,17,14.40
2018,08,21,01,18,14.40
2018,08,21,01,19,14.30
2018,08,21,01,20,14.30
2018,08,21,01,21,14.20
2018,08,21,01,22,14.20
2018,08,21,01,23,14.20
2018,08,21,01,24,14.20
2018,08,21,01,25,14.20
2018,08,21,01,26,14.30
2018,08,21,01,27,14.30
2018,08,21,01,28,14.30
2018,08,21,01,29,14.30
2018,08,21,01,30,14.30
2018,08,21,01,31,14.20
2018,08,21,01,32,14.20
2018,08,21,01,33,14.20
2018,08,21,01,34,14.20
2018,08,21,01,35,14.20
2018,08,21,01,36,14.20
2018,08,21,01,37,14.30
2018,08,21,01,38,14.40
2018,08,21,01,39,14.40
2018,08,21,01,40,14.30
2018,08,21,01,41,14.30
2018,08,21,01,42,14.30
2018,08,21,01,43,14.20
2018,08,21,01,44,14.20
2018,08,21,01,45,14.10
2018,08,21,01,46,14.10
2018,08,21,01,47,14.10
2018,08,21,01,48,14.00
2018,08,21,01,49,14.00
2018,08,21,01,50,14.00
2018,08,21,01,51,14.00
2018,08,21,01,52,14.10
2018,08,21,01,53,14.10
2018,08,21,01,54,14.20
2018,08,21,01,55,14.20
2018,08,21,01,56,14.20
2018,08,21,01,57,14.20
2018,08,21,01,58,14.20
2018,08,21,01,59,14.30
2018,08,21,02,00,14.30
2018,08,21,02,01,14.30
2018,08,21,02,02,14.30
2018,08,21,02,03,14.30
2018,08,21,02,04,14.30
2018,08,21,02,05,14.40
2018,08,21,02,06,14.40
2018,08,21,02,07,14.40
2018,08,21,02,08,14.40
2018,08,21,02,09,14.40
2018,08,21,02,10,14.40
2018,08,21,02,11,14.30
2018,08,21,02,12,14.30
2018,08,21,02,13,14.20
2018,08,21,02,14,14.20
2018,08,21,02,15,14.10
2018,08,21,02,16,14.10
2018,08,21,02,17,14.10
2018,08,21,02,18,14.10
2018,08,21,02,19,14.10
2018,08,21,02,20,14.10
2018,08,21,02,21,14.10
2018,08,21,02,22,14.10
2018,08,21,02,23,14.10
2018,08,21,02,24,14.10
2018,08,21,02,25,14.00
2018,08,21,02,26,14.00
2018,08,21,02,27,13.90
2018,08,21,02,28,13.90
2018,08,21,02,29,13.90
2018,08,21,02,30,13.90
2018,08,21,02,31,13.80
2018,08,21,02,32,13.70
2018,08,21,02,33,13.70
2018,08,21,02,34,13.60
2018,08,21,02,35,13.50
2018,08,21,02,36,13.40
2018,08,21,02,37,13.50
2018,08,21,02,38,13.60
2018,08,21,02,39,13.60
2018,08,21,02,40,13.70
2018,08,21,02,41,13.70
2018,08,21,02,42,13.80
2018,08,21,02,43,13.80
2018,08,21,02,44,13.80
2018,08,21,02,45,13.90
2018,08,21,02,46,13.90
2018,08,21,02,47,13.90
2018,08,21,02,48,13.90
2018,08,21,02,49,13.90
2018,08,21,02,50,13.90
2018,08,21,02,51,13.90
2018,08,21,02,52,13.90
2018,08,21,02,53,13.90
2018,08,21,02,54,13.90
2018,08,21,02,55,13.90
2018,08,21,02,56,13.80
2018,08,21,02,57,13.80
2018,08,21,02,58,13.80
2018,08,21,02,59,13.80
2018,08,21,03,00,13.80
2018,08,21,03,01,13.80
2018,08,21,03,02,13.80
2018,08,21,03,03,13.80
2018,08,21,03,04,13.80
2018,08,21,03,05,13.70
2018,08,21,03,06,13.70
2018,08,21,03,07,13.70
2018,08,21,03,08,13.70
2018,08,21,03,09,13.70
2018,08,21,03,10,13.70
2018,08,21,03,11,13.60
2018,08,21,03,12,13.60
2018,08,21,03,13,13.60
2018,08,21,03,14,13.60
2018,08,21,03,15,13.50
2018,08,21,03,16,13.50
2018,08,21,03,17,13.50
2018,08,21,03,18,13.40
2018,08,21,03,19,13.40
2018,08,21,03,20,13.30
2018,08,21,03,21,13.30
2018,08,21,03,22,13.30
2018,08,21,03,23,13.30
2018,08,21,03,24,13.20
2018,08,21,03,25,13.20
2018,08,21,03,26,13.20
2018,08,21,03,27,13.20
2018,08,21,03,28,13.20
2018,08,21,03,29,13.20
2018,08,21,03,30,13.20
2018,08,21,03,31,13.20
2018,08,21,03,32,13.20
2018,08,21,03,33,13.30
2018,08,21,03,34,13.30
2018,08,21,03,35,13.30
2018,08,21,03,36,13.30
2018,08,21,03,37,13.30
2018,08,21,03,38,13.30
2018,08,21,03,39,13.40
2018,08,21,03,40,13.40
2018,08,21,03,41,13.40
2018,08,21,03,42,13.40
2018,08,21,03,43,13.50
2018,08,21,03,44,13.50
2018,08,21,03,45,13.50
2018,08,21,03,46,13.40
2018,08,21,03,47,13.40
2018,08,21,03,48,13.40
2018,08,21,03,49,13.40
2018,08,21,03,50,13.40
2018,08,21,03,51,13.40
2018,08,21,03,52,13.50
2018,08,21,03,53,13.60
2018,08,21,03,54,13.60
2018,08,21,03,55,13.70
2018,08,21,03,56,13.80
2018,08,21,03,57,13.80
2018,08,21,03,58,13.90
2018,08,21,03,59,13.90
2018,08,21,04,00,13.90
2018,08,21,04,01,13.90
2018,08,21,04,02,13.90
2018,08,21,04,03,13.80
2018,08,21,04,04,13.80
2018,08,21,04,05,13.80
2018,08,21,04,06,13.80
2018,08,21,04,07,13.70
2018,08,21,04,08,13.70
2018,08,21,04,09,13.60
2018,08,21,04,10,13.60
2018,08,21,04,11,13.60
2018,08,21,04,12,13.60
2018,08,21,04,13,13.60
2018,08,21,04,14,13.60
2018,08,21,04,15,13.60
2018,08,21,04,16,13.60
2018,08,21,04,17,13.50
2018,08,21,04,18,13.50
2018,08,21,04,19,13.50
2018,08,21,04,20,13.40
2018,08,21,04,21,13.40
2018,08,21,04,22,13.40
2018,08,21,04,23,13.40
2018,08,21,04,24,13.40
2018,08,21,04,25,13.40
2018,08,21,04,26,13.40
2018,08,21,04,27,13.40
2018,08,21,04,28,13.40
2018,08,21,04,29,13.40
2018,08,21,04,30,13.40
2018,08,21,04,31,13.40
2018,08,21,04,32,13.40
2018,08,21,04,33,13.40
2018,08,21,04,34,13.40
2018,08,21,04,35,13.40
2018,08,21,04,36,13.40
2018,08,21,04,37,13.40
2018,08,21,04,38,13.40
2018,08,21,04,39,13.40
2018,08,21,04,40,13.30
2018,08,21,04,41,13.30
2018,08,21,04,42,13.30
2018,08,21,04,43,13.20
2018,08,21,04,44,13.20
2018,08,21,04,45,13.10
2018,08,21,04,46,13.00
2018,08,21,04,47,13.00
2018,08,21,04,48,12.90
2018,08,21,04,49,12.80
2018,08,21,04,50,12.70
2018,08,21,04,51,12.70
2018,08,21,04,52,12.70
2018,08,21,04,53,12.70
2018,08,21,04,54,12.70
2018,08,21,04,55,12.80
2018,08,21,04,56,12.80
2018,08,21,04,57,12.90
2018,08,21,04,58,13.00
2018,08,21,04,59,13.00
2018,08,21,05,00,13.00
2018,08,21,05,01,12.90
2018,08,21,05,02,12.90
2018,08,21,05,03,12.90
2018,08,21,05,04,12.80
2018,08,21,05,05,12.80
2018,08,21,05,06,12.90
2018,08,21,05,07,12.90
2018,08,21,05,08,12.90
2018,08,21,05,09,12.80
2018,08,21,05,10,12.80
2018,08,21,05,11,12.80
2018,08,21,05,12,12.90
2018,08,21,05,13,12.90
2018,08,21,05,14,13.00
2018,08,21,05,15,13.00
2018,08,21,05,16,13.00
2018,08,21,05,17,12.90
2018,08,21,05,18,12.90
2018,08,21,05,19,12.80
2018,08,21,05,20,12.70
2018,08,21,05,21,12.70
2018,08,21,05,22,12.60
2018,08,21,05,23,12.60
2018,08,21,05,24,12.50
2018,08,21,05,25,12.50
2018,08,21,05,26,12.50
2018,08,21,05,27,12.40
2018,08,21,05,28,12.40
2018,08,21,05,29,12.40
2018,08,21,05,30,12.40
2018,08,21,05,31,12.30
2018,08,21,05,32,12.20
2018,08,21,05,33,12.20
2018,08,21,05,34,12.10
2018,08,21,05,35,12.00
2018,08,21,05,36,11.90
2018,08,21,05,37,11.80
2018,08,21,05,38,11.80
2018,08,21,05,39,11.80
2018,08,21,05,40,11.70
2018,08,21,05,41,11.70
2018,08,21,05,42,11.60
2018,08,21,05,43,11.70
2018,08,21,05,44,11.70
2018,08,21,05,45,11.80
2018,08,21,05,46,11.80
2018,08,21,05,47,11.90
2018,08,21,05,48,12.00
2018,08,21,05,49,12.10
2018,08,21,05,50,12.10
2018,08,21,05,51,12.10
2018,08,21,05,52,12.10
2018,08,21,05,53,12.10
2018,08,21,05,54,12.10
2018,08,21,05,55,12.10
2018,08,21,05,56,12.10
2018,08,21,05,57,12.10
2018,08,21,05,58,12.10
2018,08,21,05,59,12.20
2018,08,21,06,00,12.20
2018,08,21,06,01,12.30
2018,08,21,06,02,12.30
2018,08,21,06,03,12.40
2018,08,21,06,04,12.40
2018,08,21,06,05,12.50
2018,08,21,06,06,12.60
2018,08,21,06,07,12.60
2018,08,21,06,08,12.70
2018,08,21,06,09,12.70
2018,08,21,06,10,12.80
2018,08,21,06,11,12.70
2018,08,21,06,12,12.50
2018,08,21,06,13,12.40
2018,08,21,06,14,12.30
2018,08,21,06,15,12.10
2018,08,21,06,16,12.10
2018,08,21,06,17,12.10
2018,08,21,06,18,12.10
2018,08,21,06,19,12.10
2018,08,21,06,20,12.10
2018,08,21,06,21,12.10
2018,08,21,06,22,12.10
2018,08,21,06,23,12.10
2018,08,21,06,24,12.10
2018,08,21,06,25,12.10
2018,08,21,06,26,12.10
2018,08,21,06,27,12.10
2018,08,21,06,28,12.20
2018,08,21,06,29,12.20
2018,08,21,06,30,12.30
2018,08,21,06,31,12.30
2018,08,21,06,32,12.40
2018,08,21,06,33,12.40
2018,08,21,06,34,12.50
2018,08,21,06,35,12.60
2018,08,21,06,36,12.60
2018,08,21,06,37,12.60
2018,08,21,06,38,12.50
2018,08,21,06,39,12.40
2018,08,21,06,40,12.40
2018,08,21,06,41,12.30
2018,08,21,06,42,12.20
2018,08,21,06,43,12.00
2018,08,21,06,44,12.00
2018,08,21,06,45,11.90
2018,08,21,06,46,11.90
2018,08,21,06,47,12.10
2018,08,21,06,48,12.20
2018,08,21,06,49,12.30
2018,08,21,06,50,12.30
2018,08,21,06,51,12.20
2018,08,21,06,52,12.10
2018,08,21,06,53,12.10
2018,08,21,06,54,12.10
2018,08,21,06,55,12.10
2018,08,21,06,56,12.10
2018,08,21,06,57,12.10
2018,08,21,06,58,12.10
2018,08,21,06,59,12.10
2018,08,21,07,00,12.00
2018,08,21,07,01,12.00
2018,08,21,07,02,11.90
2018,08,21,07,03,11.80
2018,08,21,07,04,11.80
2018,08,21,07,05,11.80
2018,08,21,07,06,11.70
2018,08,21,07,07,11.60
2018,08,21,07,08,11.60
2018,08,21,07,09,11.50
2018,08,21,07,10,11.40
2018,08,21,07,11,11.40
2018,08,21,07,12,11.40
2018,08,21,07,13,11.30
2018,08,21,07,14,11.30
2018,08,21,07,15,11.40
2018,08,21,07,16,11.40
2018,08,21,07,17,11.40
2018,08,21,07,18,11.40
2018,08,21,07,19,11.40
2018,08,21,07,20,11.40
2018,08,21,07,21,11.40
2018,08,21,07,22,11.40
2018,08,21,07,23,11.40
2018,08,21,07,24,11.30
2018,08,21,07,25,11.30
2018,08,21,07,26,11.30
2018,08,21,07,27,11.40
2018,08,21,07,28,11.40
2018,08,21,07,29,11.50
2018,08,21,07,30,11.50
2018,08,21,07,31,11.60
2018,08,21,07,32,11.60
2018,08,21,07,33,11.60
2018,08,21,07,34,11.60
2018,08,21,07,35,11.60
2018,08,21,07,36,11.60
2018,08,21,07,37,11.60
2018,08,21,07,38,11.60
2018,08,21,07,39,11.60
2018,08,21,07,40,11.50
2018,08,21,07,41,11.50
2018,08,21,07,42,11.60
2018,08,21,07,43,11.70
2018,08,21,07,44,11.70
2018,08,21,07,45,11.80
2018,08,21,07,46,12.00
2018,08,21,07,47,12.00
2018,08,21,07,48,12.10
2018,08,21,07,49,12.10
2018,08,21,07,50,12.10
2018,08,21,07,51,12.10
2018,08,21,07,52,12.10
2018,08,21,07,53,12.10
2018,08,21,07,54,12.10
2018,08,21,07,55,12.10
2018,08,21,07,56,12.10
2018,08,21,07,57,12.10
2018,08,21,07,58,12.20
2018,08,21,07,59,12.20
2018,08,21,08,00,12.20
2018,08,21,08,01,12.30
2018,08,21,08,02,12.30
2018,08,21,08,03,12.30
2018,08,21,08,04,12.30
2018,08,21,08,05,12.30
2018,08,21,08,06,12.30
2018,08,21,08,07,12.40
2018,08,21,08,08,12.50
2018,08,21,08,09,12.60
2018,08,21,08,10,12.70
2018,08,21,08,11,12.80
2018,08,21,08,12,12.90
2018,08,21,08,13,13.00
2018,08,21,08,14,13.00
2018,08,21,08,15,13.10
2018,08,21,08,16,13.20
2018,08,21,08,17,13.30
2018,08,21,08,18,13.40
2018,08,21,08,19,13.40
2018,08,21,08,20,13.40
2018,08,21,08,21,13.40
2018,08,21,08,22,13.40
2018,08,21,08,23,13.40
2018,08,21,08,24,13.40
2018,08,21,08,25,13.40
2018,08,21,08,26,13.50
2018,08,21,08,27,13.50
2018,08,21,08,28,13.60
2018,08,21,08,29,13.60
2018,08,21,08,30,13.70
2018,08,21,08,31,13.70
2018,08,21,08,32,13.80
2018,08,21,08,33,13.80
2018,08,21,08,34,13.90
2018,08,21,08,35,14.00
2018,08,21,08,36,14.10
2018,08,21,08,37,14.10
2018,08,21,08,38,14.20
2018,08,21,08,39,14.30
2018,08,21,08,40,14.30
2018,08,21,08,41,14.30
2018,08,21,08,42,14.40
2018,08,21,08,43,14.40
2018,08,21,08,44,14.40
2018,08,21,08,45,14.50
2018,08,21,08,46,14.50
2018,08,21,08,47,14.50
2018,08,21,08,48,14.60
2018,08,21,08,49,14.60
2018,08,21,08,50,14.60
2018,08,21,08,51,14.60
2018,08,21,08,52,14.70
2018,08,21,08,53,14.70
2018,08,21,08,54,14.80
2018,08,21,08,55,14.80
2018,08,21,08,56,14.80
2018,08,21,08,57,14.80
2018,08,21,08,58,14.80
2018,08,21,08,59,14.90
2018,08,21,09,00,14.90
2018,08,21,09,01,15.00
2018,08,21,09,02,15.10
2018,08,21,09,03,15.10
2018,08,21,09,04,15.20
2018,08,21,09,05,15.30
2018,08,21,09,06,15.30
2018,08,21,09,07,15.40
2018,08,21,09,08,15.40
2018,08,21,09,09,15.50
2018,08,21,09,10,15.50
2018,08,21,09,11,15.60
2018,08,21,09,12,15.60
2018,08,21,09,13,15.70
2018,08,21,09,14,15.70
2018,08,21,09,15,15.80
2018,08,21,09,16,15.80
2018,08,21,09,17,15.80
2018,08,21,09,18,15.90
2018,08,21,09,19,16.00
2018,08,21,09,20,16.00
2018,08,21,09,21,16.10
2018,08,21,09,22,16.10
2018,08,21,09,23,16.20
2018,08,21,09,24,16.20
2018,08,21,09,25,16.20
2018,08,21,09,26,16.30
2018,08,21,09,27,16.30
2018,08,21,09,28,16.40
2018,08,21,09,29,16.40
2018,08,21,09,30,16.50
2018,08,21,09,31,16.50
2018,08,21,09,32,16.60
2018,08,21,09,33,16.70
2018,08,21,09,34,16.70
2018,08,21,09,35,16.80
2018,08,21,09,36,16.90
2018,08,21,09,37,17.00
2018,08,21,09,38,17.10
2018,08,21,09,39,17.10
2018,08,21,09,40,17.20
2018,08,21,09,41,17.20
2018,08,21,09,42,17.20
2018,08,21,09,43,17.30
2018,08,21,09,44,17.40
2018,08,21,09,45,17.40
2018,08,21,09,46,17.50
2018,08,21,09,47,17.60
2018,08,21,09,48,17.70
2018,08,21,09,49,17.70
2018,08,21,09,50,17.80
2018,08,21,09,51,17.90
2018,08,21,09,52,18.00
2018,08,21,09,53,18.10
2018,08,21,09,54,18.20
2018,08,21,09,55,18.30
2018,08,21,09,56,18.40
2018,08,21,09,57,18.50
2018,08,21,09,58,18.60
2018,08,21,09,59,18.70
2018,08,21,10,00,18.70
2018,08,21,10,01,18.80
2018,08,21,10,02,18.90
2018,08,21,10,03,19.00
2018,08,21,10,04,19.10
2018,08,21,10,05,19.20
2018,08,21,10,06,19.30
2018,08,21,10,07,19.30
2018,08,21,10,08,19.40
2018,08,21,10,09,19.50
2018,08,21,10,10,19.70
2018,08,21,10,11,19.80
2018,08,21,10,12,19.90
2018,08,21,10,13,19.90
2018,08,21,10,14,19.90
2018,08,21,10,15,19.80
2018,08,21,10,16,19.60
2018,08,21,10,17,19.40
2018,08,21,10,18,19.30
2018,08,21,10,19,19.20
2018,08,21,10,20,19.00
2018,08,21,10,21,18.90
2018,08,21,10,22,18.90
2018,08,21,10,23,18.80
2018,08,21,10,24,18.80
2018,08,21,10,25,18.70
2018,08,21,10,26,18.70
2018,08,21,10,27,18.70
2018,08,21,10,28,18.70
2018,08,21,10,29,18.70
2018,08,21,10,30,18.70
2018,08,21,10,31,18.70
2018,08,21,10,32,18.80
2018,08,21,10,33,18.80
2018,08,21,10,34,18.80
2018,08,21,10,35,18.90
2018,08,21,10,36,18.90
2018,08,21,10,37,18.90
2018,08,21,10,38,19.00
2018,08,21,10,39,19.00
2018,08,21,10,40,19.10
2018,08,21,10,41,19.10
2018,08,21,10,42,19.20
2018,08,21,10,43,19.30
2018,08,21,10,44,19.40
2018,08,21,10,45,19.50
2018,08,21,10,46,19.60
2018,08,21,10,47,19.70
2018,08,21,10,48,19.80
2018,08,21,10,49,19.80
2018,08,21,10,50,19.90
2018,08,21,10,51,20.00
2018,08,21,10,52,20.10
2018,08,21,10,53,20.20
2018,08,21,10,54,20.30
2018,08,21,10,55,20.30
2018,08,21,10,56,20.30
2018,08,21,10,57,20.40
2018,08,21,10,58,20.40
2018,08,21,10,59,20.50
2018,08,21,11,00,20.50
2018,08,21,11,01,20.60
2018,08,21,11,02,20.60
2018,08,21,11,03,20.60
2018,08,21,11,04,20.70
2018,08,21,11,05,20.70
2018,08,21,11,06,20.70
2018,08,21,11,07,20.70
2018,08,21,11,08,20.60
2018,08,21,11,09,20.50
2018,08,21,11,10,20.40
2018,08,21,11,11,20.30
2018,08,21,11,12,20.30
2018,08,21,11,13,20.20
2018,08,21,11,14,20.10
2018,08,21,11,15,19.90
2018,08,21,11,16,19.80
2018,08,21,11,17,19.80
2018,08,21,11,18,19.70
2018,08,21,11,19,19.70
2018,08,21,11,20,19.70
2018,08,21,11,21,19.70
2018,08,21,11,22,19.70
2018,08,21,11,23,19.70
2018,08,21,11,24,19.80
2018,08,21,11,25,19.80
2018,08,21,11,26,19.90
2018,08,21,11,27,20.00
2018,08,21,11,28,20.10
2018,08,21,11,29,20.10
2018,08,21,11,30,20.20
2018,08,21,11,31,20.30
2018,08,21,11,32,20.40
2018,08,21,11,33,20.50
2018,08,21,11,34,20.60
2018,08,21,11,35,20.70
2018,08,21,11,36,20.80
2018,08,21,11,37,20.80
2018,08,21,11,38,20.70
2018,08,21,11,39,20.70
2018,08,21,11,40,20.70
2018,08,21,11,41,20.60
2018,08,21,11,42,20.70
2018,08,21,11,43,20.70
2018,08,21,11,44,20.80
2018,08,21,11,45,20.80
2018,08,21,11,46,20.80
2018,08,21,11,47,20.90
2018,08,21,11,48,20.90
2018,08,21,11,49,20.90
2018,08,21,11,50,21.00
2018,08,21,11,51,21.00
2018,08,21,11,52,21.10
2018,08,21,11,53,21.30
2018,08,21,11,54,21.50
2018,08,21,11,55,21.70
2018,08,21,11,56,21.90
2018,08,21,11,57,22.10
2018,08,21,11,58,22.30
2018,08,21,11,59,22.40
2018,08,21,12,00,22.50
2018,08,21,12,01,22.70
2018,08,21,12,02,22.80
2018,08,21,12,03,22.80
2018,08,21,12,04,22.90
2018,08,21,12,05,22.90
2018,08,21,12,06,23.00
2018,08,21,12,07,23.10
2018,08,21,12,08,23.10
2018,08,21,12,09,23.20
2018,08,21,12,10,23.30
2018,08,21,12,11,23.40
2018,08,21,12,12,23.50
2018,08,21,12,13,23.70
2018,08,21,12,14,23.80
2018,08,21,12,15,23.90
2018,08,21,12,16,23.90
2018,08,21,12,17,24.00
2018,08,21,12,18,24.10
2018,08,21,12,19,24.20
2018,08,21,12,20,24.30
2018,08,21,12,21,24.40
2018,08,21,12,22,24.50
2018,08,21,12,23,24.60
2018,08,21,12,24,24.60
2018,08,21,12,25,24.60
2018,08,21,12,26,24.70
2018,08,21,12,27,24.70
2018,08,21,12,28,24.70
2018,08,21,12,29,24.80
2018,08,21,12,30,24.80
2018,08,21,12,31,24.90
2018,08,21,12,32,24.90
2018,08,21,12,33,24.80
2018,08,21,12,34,24.70
2018,08,21,12,35,24.60
2018,08,21,12,36,24.40
2018,08,21,12,37,24.20
2018,08,21,12,38,24.00
2018,08,21,12,39,23.90
2018,08,21,12,40,23.80
2018,08,21,12,41,23.60
2018,08,21,12,42,23.40
2018,08,21,12,43,23.30
2018,08,21,12,44,23.20
2018,08,21,12,45,23.10
2018,08,21,12,46,22.90
2018,08,21,12,47,22.90
2018,08,21,12,48,22.80
2018,08,21,12,49,22.70
2018,08,21,12,50,22.60
2018,08,21,12,51,22.60
2018,08,21,12,52,22.50
2018,08,21,12,53,22.40
2018,08,21,12,54,22.40
2018,08,21,12,55,22.40
2018,08,21,12,56,22.50
2018,08,21,12,57,22.60
2018,08,21,12,58,22.80
2018,08,21,12,59,22.90
2018,08,21,13,00,23.00
2018,08,21,13,01,23.20
2018,08,21,13,02,23.30
2018,08,21,13,03,23.50
2018,08,21,13,04,23.60
2018,08,21,13,05,23.80
2018,08,21,13,06,23.90
2018,08,21,13,07,24.10
2018,08,21,13,08,24.30
2018,08,21,13,09,24.40
2018,08,21,13,10,24.50
2018,08,21,13,11,24.60
2018,08,21,13,12,24.80
2018,08,21,13,13,24.80
2018,08,21,13,14,24.90
2018,08,21,13,15,24.90
2018,08,21,13,16,25.00
2018,08,21,13,17,25.00
2018,08,21,13,18,25.00
2018,08,21,13,19,25.00
2018,08,21,13,20,25.00
2018,08,21,13,21,24.90
2018,08,21,13,22,24.90
2018,08,21,13,23,24.90
2018,08,21,13,24,24.90
2018,08,21,13,25,24.90
2018,08,21,13,26,24.90
2018,08,21,13,27,24.90
2018,08,21,13,28,24.90
2018,08,21,13,29,24.80
2018,08,21,13,30,24.80
2018,08,21,13,31,24.80
2018,08,21,13,32,24.90
2018,08,21,13,33,25.00
2018,08,21,13,34,25.00
2018,08,21,13,35,25.10
2018,08,21,13,36,25.10
2018,08,21,13,37,25.20
2018,08,21,13,38,25.30
2018,08,21,13,39,25.30
2018,08,21,13,40,25.40
2018,08,21,13,41,25.40
2018,08,21,13,42,25.50
2018,08,21,13,43,25.50
2018,08,21,13,44,25.60
2018,08,21,13,45,25.70
2018,08,21,13,46,25.70
2018,08,21,13,47,25.80
2018,08,21,13,48,25.80
2018,08,21,13,49,25.80
2018,08,21,13,50,25.80
2018,08,21,13,51,25.70
2018,08,21,13,52,25.70
2018,08,21,13,53,25.60
2018,08,21,13,54,25.60
2018,08,21,13,55,25.50
2018,08,21,13,56,25.50
2018,08,21,13,57,25.60
2018,08,21,13,58,25.60
2018,08,21,13,59,25.60
2018,08,21,14,00,25.60
2018,08,21,14,01,25.60
2018,08,21,14,02,25.60
2018,08,21,14,03,25.60
2018,08,21,14,04,25.60
2018,08,21,14,05,25.60
2018,08,21,14,06,25.50
2018,08,21,14,07,25.50
2018,08,21,14,08,25.60
2018,08,21,14,09,25.60
2018,08,21,14,10,25.60
2018,08,21,14,11,25.60
2018,08,21,14,12,25.60
2018,08,21,14,13,25.70
2018,08,21,14,14,25.70
2018,08,21,14,15,25.80
2018,08,21,14,16,25.80
2018,08,21,14,17,25.90
2018,08,21,14,18,25.90
2018,08,21,14,19,25.80
2018,08,21,14,20,25.80
2018,08,21,14,21,25.90
2018,08,21,14,22,25.90
2018,08,21,14,23,26.00
2018,08,21,14,24,26.10
2018,08,21,14,25,26.10
2018,08,21,14,26,26.10
2018,08,21,14,27,26.10
2018,08,21,14,28,26.10
2018,08,21,14,29,26.00
2018,08,21,14,30,26.00
2018,08,21,14,31,25.90
2018,08,21,14,32,25.80
2018,08,21,14,33,25.70
2018,08,21,14,34,25.70
2018,08,21,14,35,25.60
2018,08,21,14,36,25.70
2018,08,21,14,37,25.80
2018,08,21,14,38,25.80
2018,08,21,14,39,25.90
2018,08,21,14,40,25.90
2018,08,21,14,41,25.90
2018,08,21,14,42,26.00
2018,08,21,14,43,26.00
2018,08,21,14,44,26.10
2018,08,21,14,45,26.10
2018,08,21,14,46,26.10
2018,08,21,14,47,26.20
2018,08,21,14,48,26.20
2018,08,21,14,49,26.30
2018,08,21,14,50,26.30
2018,08,21,14,51,26.20
2018,08,21,14,52,26.20
2018,08,21,14,53,26.20
2018,08,21,14,54,26.20
2018,08,21,14,55,26.20
2018,08,21,14,56,26.20
2018,08,21,14,57,26.20
2018,08,21,14,58,26.20
2018,08,21,14,59,26.20
2018,08,21,15,00,26.30
2018,08,21,15,01,26.20
2018,08,21,15,02,26.20
2018,08,21,15,03,26.20
2018,08,21,15,04,26.20
2018,08,21,15,05,26.20
2018,08,21,15,06,26.20
2018,08,21,15,07,26.30
2018,08,21,15,08,26.30
2018,08,21,15,09,26.40
2018,08,21,15,10,26.30
2018,08,21,15,11,26.30
2018,08,21,15,12,26.30
2018,08,21,15,13,26.20
2018,08,21,15,14,26.20
2018,08,21,15,15,26.10
2018,08,21,15,16,26.10
2018,08,21,15,17,26.10
2018,08,21,15,18,26.10
2018,08,21,15,19,26.10
2018,08,21,15,20,26.10
2018,08,21,15,21,26.10
2018,08,21,15,22,26.20
2018,08,21,15,23,26.20
2018,08,21,15,24,26.20
2018,08,21,15,25,26.20
2018,08,21,15,26,26.20
2018,08,21,15,27,26.10
2018,08,21,15,28,26.10
2018,08,21,15,29,26.10
2018,08,21,15,30,26.10
2018,08,21,15,31,26.00
2018,08,21,15,32,26.00
2018,08,21,15,33,26.10
2018,08,21,15,34,26.10
2018,08,21,15,35,26.10
2018,08,21,15,36,26.20
2018,08,21,15,37,26.20
2018,08,21,15,38,26.20
2018,08,21,15,39,26.30
2018,08,21,15,40,26.30
2018,08,21,15,41,26.40
2018,08,21,15,42,26.40
2018,08,21,15,43,26.40
2018,08,21,15,44,26.40
2018,08,21,15,45,26.50
2018,08,21,15,46,26.60
2018,08,21,15,47,26.60
2018,08,21,15,48,26.60
2018,08,21,15,49,26.60
2018,08,21,15,50,26.70
2018,08,21,15,51,26.70
2018,08,21,15,52,26.80
2018,08,21,15,53,26.90
2018,08,21,15,54,27.00
2018,08,21,15,55,27.10
2018,08,21,15,56,27.10
2018,08,21,15,57,27.10
2018,08,21,15,58,27.10
2018,08,21,15,59,27.10
2018,08,21,16,00,27.00
2018,08,21,16,01,26.90
2018,08,21,16,02,26.80
2018,08,21,16,03,26.70
2018,08,21,16,04,26.70
2018,08,21,16,05,26.60
2018,08,21,16,06,26.50
2018,08,21,16,07,26.30
2018,08,21,16,08,26.20
2018,08,21,16,09,26.00
2018,08,21,16,10,25.80
2018,08,21,16,11,25.50
2018,08,21,16,12,25.30
2018,08,21,16,13,25.00
2018,08,21,16,14,24.70
2018,08,21,16,15,24.50
2018,08,21,16,16,24.30
2018,08,21,16,17,24.00
2018,08,21,16,18,23.80
2018,08,21,16,19,23.60
2018,08,21,16,20,23.50
2018,08,21,16,21,23.40
2018,08,21,16,22,23.30
2018,08,21,16,23,23.30
2018,08,21,16,24,23.30
2018,08,21,16,25,23.30
2018,08,21,16,26,23.30
2018,08,21,16,27,23.30
2018,08,21,16,28,23.30
2018,08,21,16,29,23.30
2018,08,21,16,30,23.40
2018,08,21,16,31,23.50
2018,08,21,16,32,23.60
2018,08,21,16,33,23.70
2018,08,21,16,34,23.80
2018,08,21,16,35,23.80
2018,08,21,16,36,23.90
2018,08,21,16,37,23.90
2018,08,21,16,38,23.90
2018,08,21,16,39,23.90
2018,08,21,16,40,23.90
2018,08,21,16,41,23.80
2018,08,21,16,42,23.70
2018,08,21,16,43,23.70
2018,08,21,16,44,23.60
2018,08,21,16,45,23.50
2018,08,21,16,46,23.50
2018,08,21,16,47,23.50
2018,08,21,16,48,23.40
2018,08,21,16,49,23.40
2018,08,21,16,50,23.40
2018,08,21,16,51,23.30
2018,08,21,16,52,23.20
2018,08,21,16,53,23.20
2018,08,21,16,54,23.10
2018,08,21,16,55,23.00
2018,08,21,16,56,22.90
2018,08,21,16,57,22.80
2018,08,21,16,58,22.70
2018,08,21,16,59,22.70
2018,08,21,17,00,22.60
2018,08,21,17,01,22.60
2018,08,21,17,02,22.50
2018,08,21,17,03,22.40
2018,08,21,17,04,22.30
2018,08,21,17,05,22.20
2018,08,21,17,06,22.00
2018,08,21,17,07,21.90
2018,08,21,17,08,21.70
2018,08,21,17,09,21.60
2018,08,21,17,10,21.50
2018,08,21,17,11,21.50
2018,08,21,17,12,21.40
2018,08,21,17,13,21.40
2018,08,21,17,14,21.40
2018,08,21,17,15,21.40
2018,08,21,17,16,21.40
2018,08,21,17,17,21.40
2018,08,21,17,18,21.50
2018,08,21,17,19,21.50